Cosmos 1295 Rocket - Orbit

View from above orbital plane
View from above orbital plane
View from above satellite
View from above satellite

Ground track
Ground track

The orbit data is extracted from the following two-line orbital elements,

1 12682U 81077B   13144.17051867  .00000093  00000-0  77027-4 0  4736
2 12682 082.9185 046.7254 0034206 186.4016 324.9143 13.78404838598276
Epoch (UTC): 24 May 2013 04:05:32
Eccentricity: 0.0034206
inclination: 82.9185°
perigee height: 944 km
apogee height: 994 km
right ascension of ascending node: 46.7254°
argument of perigee: 186.4016°
revolutions per day: 13.78404838
mean anomaly at epoch: 324.9143°
orbit number at epoch: 59827

The dashed part of the orbit path shows where the satellite is in the earth's shadow,  

Developed and maintained by Chris Peat, Heavens-Above GmbH. Please read the updated FAQ before sending e-mail. Imprint. DLR